Location: Syracuse
(43.0480°N, 76.1480°W)
Time: 19:15:10
(UTC-05:00)

Daily predictions for brighter satellites

Satellite Brightness Start Highest point End
(mag) Time Altitude Azimuth Time Altitude Azimuth Time Altitude Azimuth
Cosmos 1536 4.5 18:13:39 10° ESE 18:15:46 14° E 18:17:53 10° NE
H-2A R/B 4.4 18:14:41 10° E 18:16:42 14° ENE 18:18:42 10° NNE
Okean 1 3.4 18:15:10 10° N 18:19:11 58° E 18:23:12 10° SSE
Meteor 1-25 Rocket 4.3 18:13:42 10° S 18:19:19 85° E 18:25:03 10° N
Cosmos 1812 2.8 18:16:07 10° N 18:20:01 85° WSW 18:23:51 10° S
Cosmos 1633 3.5 18:18:14 10° SSE 18:21:26 28° E 18:24:38 10° NNE
Cosmos 1536 Rocket 3.7 18:17:30 10° N 18:21:54 53° E 18:26:16 10° SSE
Cosmos 1818 3.6 18:20:10 10° SSW 18:25:35 75° ESE 18:31:03 10° NE
Cosmos 407 Rocket 3.5 18:21:49 10° SSW 18:27:04 88° ESE 18:32:25 10° NNE
Cosmos 2360 Rocket 2.4 18:21:43 10° NNW 18:27:15 52° ENE 18:32:47 10° SE
ASTRO F (AKARI) 4.4 18:24:13 10° NNE 18:27:48 70° ESE 18:31:10 10° S
Cosmos 2219 Rocket 3.7 18:24:51 10° N 18:28:28 17° NE 18:31:49 11° E
Cosmos 2219 4.3 18:25:36 10° SSE 18:29:53 22° E 18:34:10 10° NE
DNEPR-1 R/B 4.4 18:27:14 10° NW 18:31:21 52° WSW 18:35:30 10° SSE
Cosmos 676 Rocket 4.0 18:26:30 10° S 18:31:38 67° ESE 18:36:49 10° NNE
Nadezhda 1 Rocket 4.5 18:31:51 10° NNW 18:37:51 65° W 18:43:50 10° S
Meteor 1-11 Rocket 4.1 18:33:47 10° SSE 18:39:16 46° E 18:44:54 10° NNE
Cosmos 1461 4.3 18:40:16 10° NW 18:44:01 39° WSW 18:47:51 10° S
DELTA 2 R/B (1) 4.3 18:40:05 10° W 18:45:28 48° SSW 18:50:43 11° ESE
Cosmos 1140 Rocket 3.5 18:41:44 10° S 18:46:43 55° ESE 18:51:46 10° NNE
Cosmos 1602 3.7 18:45:57 10° S 18:49:46 62° E 18:53:39 10° NNE
Resurs 01 Rocket 2.0 18:45:45 10° SE 18:49:53 42° ENE 18:54:03 10° N
Cosmos 1300 Rocket 3.5 18:46:57 10° S 18:51:17 62° E 18:55:41 10° NNE
Cosmos 614 Rocket 4.1 18:49:44 10° S 18:54:37 49° ESE 18:59:29 10° NNE
COSMO-SKYMED 1 4.2 18:50:54 10° N 18:54:55 37° WNW 18:58:55 10° SW
Abrixas rocket 3.9 18:54:07 10° S 18:56:30 18° SE 18:56:51 18° SE
Cosmos 1833 4.2 18:50:58 10° SSW 18:56:40 83° ESE 19:02:21 10° NNE
ALOS 2.2 18:53:13 10° SSE 18:57:51 68° ENE 19:02:31 10° N
Cosmos 2181 Rocket 4.0 18:51:38 10° N 18:57:54 80° E 19:04:15 10° S
USA 229 DEB 4.1 18:55:15 10° NNW 19:02:05 46° NE 19:07:03 19° ESE
USA 229 4.2 18:55:21 10° NNW 19:02:10 46° NE 19:07:06 19° ESE
Spot 2 Rocket 3.5 18:57:19 10° SSE 19:02:15 57° ENE 19:07:14 10° N
Cosmos 2333 Rocket 3.4 18:57:39 10° N 19:02:18 25° NE 19:04:11 21° E
SL-16 R/B 4.1 18:58:47 10° NW 19:03:47 33° WSW 19:08:46 10° SSW
Cosmos 2208 Rocket 4.2 18:59:03 10° NNW 19:04:24 53° ENE 19:09:40 10° SE
FREGAT/IRIS 3.6 19:02:33 10° S 19:05:33 50° W 19:08:34 10° NNW
Helios 1A 3.7 19:04:17 23° ESE 19:05:59 32° ENE 19:09:42 10° N
Cosmos 1340 3.3 19:02:38 10° NNW 19:06:23 58° W 19:10:05 10° S
NOSS 8 (E) 4.4 19:03:30 10° SSW 19:06:56 66° ESE 19:09:18 20° NE
Resurs 1-3 3.7 19:03:28 10° SSE 19:07:45 54° ENE 19:12:02 10° N
Cosmos 1709 Rocket 4.3 19:07:34 10° SSW 19:13:45 68° W 19:19:55 10° N
Cosmos 2074 Rocket 4.1 19:07:47 10° SSE 19:13:49 54° E 19:19:56 10° NNE
Cosmos 1850 Rocket 4.0 19:08:38 10° S 19:13:51 62° ESE 19:19:08 10° NNE
Cosmos 2184 Rocket 4.1 19:10:40 10° SSE 19:16:47 55° E 19:22:52 10° NNE
Helios 1B rocket 3.1 19:13:56 10° NNE 19:18:13 33° ESE 19:21:33 10° SSE
Envisat 3.9 19:18:30 27° ENE 19:18:45 27° ENE 19:23:00 10° N
FengYun 1-2 T 4.3 19:14:27 10° SSE 19:19:57 82° WSW 19:25:29 10° NNW
NOSS 8 (H) 4.3 19:17:40 10° SSW 19:21:01 65° ESE 19:21:51 46° ENE
Intercosmos 24 4.4 19:17:19 10° S 19:21:28 57° E 19:27:24 10° NNE
Okean 2 3.8 19:17:54 10° N 19:21:50 39° ENE 19:22:00 39° E
USA 186 4.0 19:24:36 13° N 19:24:36 13° N 19:25:00 10° N
HJ-1C 4.0 19:19:22 10° S 19:22:41 56° W 19:26:02 10° NNW
SJ-6B 4.3 19:20:20 10° SSW 19:24:05 38° W 19:27:47 10° NNW
Tiangong 2 3.9 19:23:37 10° SW 19:24:46 12° SW 19:25:53 10° SSW
Okean 1 Rocket 3.3 19:21:38 10° SSW 19:26:07 74° W 19:30:36 10° N
SAR-Lupe-1 4.1 19:26:19 54° ENE 19:26:22 54° ENE 19:29:53 10° N
Genesis I 3.1 19:22:40 10° NW 19:26:38 89° WSW 19:28:05 38° SSE
Meteor 1-5 Rocket 4.3 19:21:05 10° S 19:26:57 60° E 19:32:46 10° NNE
FENGYUN 3A 4.0 19:22:25 10° S 19:27:48 69° WSW 19:33:14 10° NNW
Cosmos 1892 Rocket 4.2 19:25:56 10° N 19:29:15 35° NE 19:29:15 35° NE
SAR-Lupe-4 3.4 19:30:26 51° SE 19:31:13 75° ENE 19:34:48 10° N
Nadezhda 3 Rocket 4.3 19:29:36 10° N 19:35:24 41° ENE 19:36:38 37° ESE
Gbstr 26 Del rocket 2.5 19:32:35 10° WSW 19:36:22 81° NNW 19:36:52 64° NE
GEOS 3 Rocket 3.7 19:39:42 15° NNE 19:44:07 77° NW 19:49:24 10° SW
Cosmos 2285 Rocket 3.9 19:37:41 10° NNW 19:44:10 75° ENE 19:47:50 27° SSE
Cosmos 1025 Rocket 3.1 19:40:42 10° NNW 19:45:05 75° W 19:48:41 15° S
CZ-2D R/B 3.4 19:43:32 30° S 19:45:17 70° WSW 19:49:07 10° NNW
Cosmos 2154 Rocket 4.1 19:39:43 10° SSE 19:45:46 49° E 19:51:50 10° NNE
Cosmos 405 Rocket 3.7 19:42:20 10° N 19:45:01 36° NNE 19:45:01 36° NNE
GPS 2-04 Rocket1 4.4 19:43:27 10° SW 19:46:29 25° S 19:46:29 25° S
H-2A R/B 3.8 19:47:05 10° S 19:50:37 42° W 19:54:12 10° NNW
Meteor 2-13 Rocket 4.3 19:45:39 10° S 19:51:38 68° E 19:57:42 10° NNE
Cosmos 1536 4.0 19:48:01 10° SSW 19:51:49 42° WNW 19:55:38 10° N
COSMOS 2428 2.8 19:46:27 10° NNW 19:52:09 73° WSW 19:55:38 24° SSE
Cosmos 2333 4.2 19:47:47 10° NNW 19:53:32 81° WSW 19:56:21 32° SSE
Meteor 2-4 Rocket 4.5 19:48:54 10° NNW 19:54:16 51° W 19:59:28 10° SSW
Cosmos 2237 Rocket 2.7 19:50:52 10° NNW 19:55:53 43° NE 19:55:53 43° NE
NOSS 0 Rocket 3.7 20:01:42 10° NNW 20:07:52 73° ENE 20:08:24 68° E
Cosmos 2360 Rocket 4.4 20:06:29 10° NW 20:10:52 23° WSW 20:15:13 10° SSW
Cosmos 2219 Rocket 2.0 20:07:33 10° NNW 20:13:11 87° WSW 20:13:36 78° S
Cosmos 2219 3.8 20:07:55 10° SW 20:13:34 57° WNW 20:19:14 10° NNE
Resurs 01 Rocket 4.2 20:23:26 10° SW 20:26:33 19° W 20:29:41 10° NW
SL-16 R/B 3.7 20:24:32 10° N 20:27:20 25° NNE 20:27:20 25° NNE
BREEZE-M DEB (TANK) 4.4 20:30:07 10° WNW 20:34:09 62° SSW 20:35:01 57° S
Cosmos 2333 Rocket 2.8 20:41:19 10° NNW 20:46:14 54° WNW 20:46:14 54° WNW
Envisat 4.5 20:58:41 34° WNW 20:58:41 34° WNW 21:02:19 10° NNW
NOSS 3-1 (A) 4.1 20:58:30 10° NW 21:04:58 68° NNW 21:04:58 68° NNW
ATLAS 2AS CENTAUR R/B 4.1 21:04:30 10° NNW 21:10:17 34° NNE 21:10:17 34° NNE
NOSS 3-1 (C) 4.5 21:18:06 10° NW 21:24:23 57° W 21:24:23 57° W
Cosmos 2237 Rocket 4.4 21:35:19 10° NW 21:37:44 21° WNW 21:37:44 21° WNW
